Weather History for Ravenna, OH

Change the Weather History Date:

Wednesday, June 26, 2013

  Actual Average (KCAK) Record (KCAK)
Temperature  
Mean Temperature 72 °F 71 °F  
Max Temperature 80 °F 81 °F 100 °F (1952)
Min Temperature 65 °F 60 °F 46 °F (1955)
Degree Days  
Heating Degree Days 0 1  
Month to date heating degree days 49  
Since 1 June heating degree days 49  
Since 1 July heating degree days 6150  
Cooling Degree Days 8 6  
Month to date cooling degree days 109  
Year to date cooling degree days 151  
Since 1 June cooling degree days 109  
Growing Degree Days 22 (Base 50)    
Moisture  
Dew Point 67 °F    
Average Humidity 85    
Maximum Humidity 100    
Minimum Humidity 63    
Precipitation  
Precipitation 0.50 in 0.12 in 2.00 in (1970)
Month to date precipitation 3.32  
Year to date precipitation 19.05  
Snow  
Snow 0.00 in 0.00 in - ()
Month to date snowfall 0.0  
Since 1 June snowfall 0.0  
Since 1 July snowfall 47.5  
Snow Depth -    
Sea Level Pressure  
Sea Level Pressure 29.89 in    
Wind  
Wind Speed 3 mph (SW)    
Max Wind Speed 7 mph    
Max Gust Speed -    
Visibility 9 miles    
Events Rain    
T = Trace of Precipitation, MM = Missing Value Source: NWS Daily Summary

Daily Weather History Graph

Daily Weather History Graph

Search for Another Location

Airport:

Trip Planner

Search our weather history database for the weather conditions in past years. The results will help you decide how hot, cold, wet, or windy it might be!

Date:

Astronomy

Jun. 26, 2013 Rise Set
Actual Time 5:53 AM EDT 9:01 PM EDT
Civil Twilight 5:20 AM EDT 9:35 PM EDT
Nautical Twilight 4:36 AM EDT 10:18 PM EDT
Astronomical Twilight 3:45 AM EDT 11:10 PM EDT
Moon 11:21 PM EDT 9:46 AM EDT
Length of Visible Light 16h 15m
Length of Day
15h 08m
Waning Gibbous, 85% of the Moon is Illuminated
Jun 26
Waning Gibbous
Jun 30
Last Quarter
Jul 8
New
Jul 15
First Quarter
Jul 22
Full

Hourly Weather History & Observations

Time (EDT) Temp. Heat Index Dew Point Humidity Pressure Visibility Wind Dir Wind Speed Gust Speed Precip Events Conditions
12:14 AM 65.7 °F - 65.8 °F 100% 29.98 in 3.0 mi SW 4.6 mph - 0.12 in Rain Heavy Rain
12:33 AM 65.5 °F - 65.7 °F 100% 29.94 in 10.0 mi SE 5.8 mph - 0.13 in Rain Light Rain
12:53 AM 65.7 °F - 65.8 °F 100% 29.93 in 10.0 mi Calm Calm - 0.13 in Rain Light Rain
1:14 AM 66.2 °F - 66.4 °F 100% 29.96 in 5.0 mi West 4.6 mph - 0.09 in Rain Rain
1:33 AM 66.0 °F - 66.2 °F 100% 29.92 in 5.0 mi Calm Calm - 0.15 in Rain Light Rain
1:53 AM 65.8 °F - 66.2 °F 100% 29.93 in 5.0 mi Calm Calm - 0.16 in Rain Light Rain
2:14 AM 65.8 °F - 66.2 °F 100% 29.92 in 5.0 mi SE 3.5 mph - 0.02 in Rain Light Rain
2:33 AM 65.8 °F - 66.2 °F 100% 29.92 in 7.0 mi Calm Calm - 0.02 in Rain Light Rain
2:53 AM 65.8 °F - 66.2 °F 100% 29.92 in 5.0 mi Calm Calm - 0.02 in   Mostly Cloudy
3:14 AM 66.2 °F - 66.2 °F 100% 29.95 in 10.0 mi South 6.9 mph - N/A   Overcast
3:33 AM 66.2 °F - 66.4 °F 100% 29.93 in 10.0 mi SSE 4.6 mph - N/A Rain Light Rain
3:54 AM 66.4 °F - 66.6 °F 100% 29.93 in 10.0 mi South 3.5 mph - 0.01 in Rain Light Rain
4:14 AM 66.4 °F - 66.6 °F 100% 29.93 in 10.0 mi SSW 6.9 mph - 0.01 in Rain Light Rain
4:33 AM 66.6 °F - 66.7 °F 100% 29.93 in 4.0 mi Calm Calm - 0.11 in Rain Heavy Rain
4:53 AM 66.4 °F - 66.6 °F 100% 29.91 in 5.0 mi SE 4.6 mph - 0.16 in Rain Light Rain
5:14 AM 66.2 °F - 66.4 °F 100% 29.90 in 7.0 mi SSE 4.6 mph - 0.01 in Rain Light Rain
5:33 AM 66.2 °F - 66.4 °F 100% 29.89 in 7.0 mi South 3.5 mph - 0.01 in   Light Drizzle
5:53 AM 66.2 °F - 66.2 °F 100% 29.89 in 7.0 mi SSE 3.5 mph - 0.01 in   Scattered Clouds
6:14 AM 66.0 °F - 66.2 °F 100% 29.88 in 10.0 mi Calm Calm - N/A   Clear
6:33 AM 66.2 °F - 66.4 °F 100% 29.88 in 10.0 mi Calm Calm - N/A   Scattered Clouds
6:54 AM 66.2 °F - 66.2 °F 100% 29.88 in 10.0 mi Calm Calm - N/A   Clear
7:13 AM 66.0 °F - 66.2 °F 100% 29.88 in 10.0 mi SSW 3.5 mph - N/A   Scattered Clouds
7:33 AM 66.4 °F - 66.6 °F 100% 29.89 in 7.0 mi SW 4.6 mph - N/A   Scattered Clouds
7:54 AM 66.6 °F - 66.7 °F 100% 29.91 in 10.0 mi WSW 5.8 mph - N/A   Mostly Cloudy
8:14 AM 67.1 °F - 67.1 °F 100% 29.92 in 10.0 mi WSW 6.9 mph - N/A   Overcast
8:33 AM 67.1 °F - 67.3 °F 100% 29.92 in 10.0 mi WSW 6.9 mph - N/A   Overcast
8:53 AM 67.3 °F - 67.5 °F 100% 29.92 in 10.0 mi WSW 6.9 mph - N/A Rain Rain
9:14 AM 67.1 °F - 67.3 °F 100% 29.93 in 7.0 mi WSW 6.9 mph - N/A   Light Drizzle
9:33 AM 67.1 °F - 67.3 °F 100% 29.93 in 10.0 mi Calm Calm - N/A   Overcast
9:54 AM 67.6 °F - 67.8 °F 100% 29.92 in 10.0 mi Calm Calm - N/A   Overcast
10:13 AM 69.1 °F - 69.1 °F 100% 29.91 in 10.0 mi Calm Calm - N/A   Overcast
10:34 AM 70.2 °F - 70.0 °F 99% 29.91 in 10.0 mi WSW 3.5 mph - N/A   Scattered Clouds
10:53 AM 70.9 °F - 70.2 °F 98% 29.91 in 10.0 mi WSW 3.5 mph - N/A   Clear
11:14 AM 71.6 °F - 70.5 °F 96% 29.92 in 10.0 mi West 4.6 mph - N/A   Clear
11:33 AM 73.0 °F - 69.8 °F 90% 29.92 in 10.0 mi West 4.6 mph - N/A   Clear
11:54 AM 73.8 °F - 68.2 °F 83% 29.91 in 10.0 mi WSW 5.8 mph - N/A   Scattered Clouds
12:14 PM 74.3 °F - 65.5 °F 74% 29.92 in 10.0 mi WSW 4.6 mph - N/A   Mostly Cloudy
12:33 PM 74.5 °F - 66.0 °F 75% 29.92 in 10.0 mi West 4.6 mph - N/A   Overcast
12:54 PM 75.0 °F - 66.0 °F 73% 29.92 in 10.0 mi WSW 4.6 mph - N/A   Overcast
1:13 PM 75.9 °F - 65.8 °F 71% 29.92 in 10.0 mi WSW 3.5 mph - N/A   Overcast
1:34 PM 76.8 °F - 65.3 °F 67% 29.92 in 10.0 mi SW 5.8 mph - N/A   Overcast
1:53 PM 77.0 °F - 65.7 °F 68% 29.91 in 10.0 mi West 3.5 mph - N/A   Mostly Cloudy
2:14 PM 77.5 °F - 65.1 °F 65% 29.90 in 10.0 mi WNW 3.5 mph - N/A   Scattered Clouds
2:33 PM 79.5 °F - 66.4 °F 64% 29.90 in 10.0 mi WSW 5.8 mph - N/A   Scattered Clouds
2:54 PM 78.1 °F - 65.5 °F 65% 29.89 in 10.0 mi WNW 4.6 mph - 0.01 in   Mostly Cloudy
3:13 PM 78.3 °F - 65.3 °F 64% 29.89 in 10.0 mi SW 3.5 mph - N/A   Overcast
3:33 PM 79.3 °F - 65.8 °F 63% 29.88 in 10.0 mi Calm Calm - N/A   Overcast
3:53 PM 78.3 °F - 64.9 °F 63% 29.88 in 10.0 mi Calm Calm - N/A   Overcast
4:13 PM 79.0 °F - 66.9 °F 66% 29.88 in 10.0 mi Calm Calm - N/A   Overcast
4:33 PM 79.7 °F - 67.6 °F 66% 29.87 in 10.0 mi South 3.5 mph - N/A   Overcast
4:53 PM 80.1 °F 82.7 °F 68.4 °F 67% 29.87 in 10.0 mi South 3.5 mph - N/A   Mostly Cloudy
5:14 PM 79.3 °F - 67.3 °F 66% 29.86 in 10.0 mi SSW 5.8 mph - N/A   Mostly Cloudy
5:33 PM 78.3 °F - 67.3 °F 69% 29.85 in 10.0 mi Calm Calm - N/A   Mostly Cloudy
5:54 PM 78.8 °F - 66.9 °F 67% 29.85 in 10.0 mi Calm Calm - N/A   Scattered Clouds
6:13 PM 79.9 °F - 66.7 °F 64% 29.84 in 10.0 mi Calm Calm - N/A   Scattered Clouds
6:33 PM 79.7 °F - 67.1 °F 65% 29.83 in 10.0 mi Calm Calm - N/A   Clear
6:54 PM 79.7 °F - 67.3 °F 66% 29.83 in 10.0 mi Calm Calm - N/A   Clear
7:14 PM 79.7 °F - 67.8 °F 67% 29.83 in 10.0 mi SW 3.5 mph - N/A   Clear
7:33 PM 79.2 °F - 67.3 °F 67% 29.83 in 10.0 mi Calm Calm - N/A   Clear
7:53 PM 78.6 °F - 68.0 °F 70% 29.84 in 10.0 mi Calm Calm - N/A   Scattered Clouds
8:14 PM 77.4 °F - 68.7 °F 75% 29.84 in 10.0 mi Calm Calm - N/A   Clear
8:33 PM 76.6 °F - 68.5 °F 76% 29.84 in 10.0 mi Calm Calm - N/A   Scattered Clouds
8:54 PM 75.2 °F - 68.5 °F 80% 29.84 in 10.0 mi Calm Calm - N/A   Scattered Clouds
9:13 PM 75.0 °F - 68.4 °F 80% 29.84 in 10.0 mi Calm Calm - N/A   Scattered Clouds
9:34 PM 74.1 °F - 68.9 °F 84% 29.83 in 10.0 mi Calm Calm - N/A   Scattered Clouds
9:53 PM 73.9 °F - 68.9 °F 84% 29.84 in 10.0 mi SSE 3.5 mph - N/A   Scattered Clouds
10:13 PM 74.1 °F - 68.9 °F 84% 29.84 in 10.0 mi South 3.5 mph - N/A   Clear
10:33 PM 74.3 °F - 68.5 °F 82% 29.84 in 10.0 mi Calm Calm - N/A   Clear
10:54 PM 73.8 °F - 68.5 °F 84% 29.84 in 10.0 mi Calm Calm - N/A   Clear
11:13 PM 73.8 °F - 68.2 °F 83% 29.83 in 10.0 mi Calm Calm - N/A   Mostly Cloudy
11:34 PM 74.3 °F - 67.8 °F 80% 29.83 in 10.0 mi South 3.5 mph - N/A   Overcast
11:53 PM 73.9 °F - 68.0 °F 82% 29.83 in 10.0 mi SW 3.5 mph - N/A   Mostly Cloudy